Grand Forks, ND

1:29 AM CDT on June 25, 2018 (GMT -0500)
Grand Forks International

Weather History for KGFK - September, 2017

Change the Weather History Date:

Thursday, September 14, 2017

  Actual Average Record
Temperature  
Mean Temperature 59 °F 58 °F  
Max Temperature 64 °F 70 °F 89 °F (2006)
Min Temperature 53 °F 45 °F 25 °F (1956)
Degree Days  
Heating Degree Days 6 8  
Month to date heating degree days 38 83  
Since 1 July heating degree days 57 165  
Cooling Degree Days 0 1  
Month to date cooling degree days 33 20  
Year to date cooling degree days 408 372  
Growing Degree Days 10 (Base 50)    
Moisture  
Dew Point 54 °F    
Average Humidity 84    
Maximum Humidity 100    
Minimum Humidity 67    
Precipitation  
Precipitation 0.01 in 0.07 in 0.67 in (1965)
Month to date precipitation 0.18 1.04  
Year to date precipitation 11.23 16.27  
Snow  
Snow 0.00 in 0.00 in 0.00 in ()
Month to date snowfall 0.0 0.0  
Since 1 July snowfall 0.0 0.0  
Since 1 September snowfall 0.0 0.0  
Snow Depth 0.00 in    
Sea Level Pressure  
Sea Level Pressure 29.76 in    
Wind  
Wind Speed 11 mph (North)    
Max Wind Speed 21 mph    
Max Gust Speed 25 mph    
Visibility 10 miles    
Events Rain , Thunderstorm    
T = Trace of Precipitation, MM = Missing Value Source: NWS Daily Summary

Daily Weather History Graph

Daily Weather History Graph

Search for Another Location

Airport or City:

Astronomy

Sep. 14, 2017 Rise Set
Actual Time 7:04 AM CDT 7:42 PM CDT
Civil Twilight 6:33 AM CDT 8:13 PM CDT
Nautical Twilight 5:56 AM CDT 8:50 PM CDT
Astronomical Twilight 5:17 AM CDT 9:29 PM CDT
Moon 12:43 AM CDT (9/14) 4:20 PM CDT (9/14)
Length of Visible Light 13h 39m
Length of Day
12h 37m
Waning Crescent, 34% of the Moon is Illuminated
Sep 14
Waning Crescent
Sep 20
New
Sep 27
First Quarter
Oct 5
Full
Oct 12
Last Quarter

Hourly Weather History & Observations

Time (CDT) Temp. Dew Point Humidity Pressure Visibility Wind Dir Wind Speed Gust Speed Precip Events Conditions
12:53 AM 64.0 °F 54.0 °F 70% 29.65 in 10.0 mi East 4.6 mph - N/A   Clear
1:53 AM 60.1 °F 55.0 °F 83% 29.66 in 10.0 mi NW 4.6 mph - N/A   Clear
2:53 AM 63.0 °F 55.9 °F 78% 29.63 in 10.0 mi NNE 4.6 mph - N/A   Clear
3:53 AM 62.1 °F 55.0 °F 78% 29.68 in 10.0 mi NW 10.4 mph - N/A   Clear
4:53 AM 60.1 °F 53.1 °F 78% 29.67 in 10.0 mi North 10.4 mph - N/A   Clear
5:53 AM 60.1 °F 51.1 °F 72% 29.71 in 10.0 mi NNW 12.7 mph - N/A   Mostly Cloudy
6:53 AM 60.1 °F 51.1 °F 72% 29.70 in 10.0 mi North 12.7 mph - N/A   Overcast
7:53 AM 61.0 °F 52.0 °F 72% 29.73 in 10.0 mi NNW 8.1 mph - N/A   Overcast
8:53 AM 62.1 °F 53.1 °F 72% 29.72 in 10.0 mi North 15.0 mph - N/A   Overcast
9:06 AM 62.1 °F 53.1 °F 72% 29.71 in 10.0 mi North 17.3 mph - N/A   Overcast
9:53 AM 61.0 °F 52.0 °F 72% 29.73 in 10.0 mi NNW 15.0 mph - N/A   Overcast
10:53 AM 59.0 °F 52.0 °F 78% 29.77 in 10.0 mi NNW 12.7 mph - 0.00 in Rain Light Rain
11:53 AM 61.0 °F 53.1 °F 75% 29.72 in 10.0 mi NNE 15.0 mph - 0.00 in   Overcast
12:53 PM 61.0 °F 55.0 °F 81% 29.75 in 10.0 mi NNW 10.4 mph - 0.00 in   Overcast
1:30 PM 59.0 °F 55.0 °F 87% 29.76 in 10.0 mi NNW 12.7 mph - N/A   Overcast
1:43 PM 59.0 °F 54.0 °F 83% 29.75 in 10.0 mi North 12.7 mph - N/A   Overcast
1:53 PM 59.0 °F 55.0 °F 87% 29.77 in 10.0 mi NNW 15.0 mph - N/A   Overcast
2:26 PM 57.0 °F 55.0 °F 93% 29.76 in 10.0 mi NNW 13.8 mph - 0.01 in Rain , Thunderstorm Light Thunderstorms and Rain
2:41 PM 55.9 °F 55.0 °F 97% 29.76 in 10.0 mi North 10.4 mph - 0.01 in Rain Light Rain
2:53 PM 57.0 °F 55.0 °F 93% 29.77 in 10.0 mi NNW 9.2 mph - 0.01 in   Overcast
3:53 PM 55.9 °F 55.0 °F 97% 29.78 in 10.0 mi North 12.7 mph - N/A   Overcast
4:53 PM 59.0 °F 55.0 °F 87% 29.79 in 10.0 mi North 13.8 mph - N/A   Overcast
5:53 PM 62.1 °F 55.9 °F 80% 29.79 in 10.0 mi North 16.1 mph - N/A   Mostly Cloudy
6:53 PM 62.1 °F 55.0 °F 78% 29.81 in 10.0 mi North 13.8 mph - N/A   Overcast
7:53 PM 61.0 °F 55.0 °F 81% 29.83 in 10.0 mi North 9.2 mph - N/A   Overcast
8:53 PM 57.9 °F 54.0 °F 87% 29.85 in 10.0 mi North 10.4 mph - N/A   Overcast
9:53 PM 57.9 °F 52.0 °F 81% 29.87 in 10.0 mi North 12.7 mph - N/A   Mostly Cloudy
10:53 PM 55.9 °F 51.1 °F 84% 29.88 in 10.0 mi North 9.2 mph - N/A   Mostly Cloudy
11:30 PM 55.0 °F 50.0 °F 83% 29.90 in 10.0 mi North 10.4 mph - N/A   Mostly Cloudy
11:53 PM 55.0 °F 50.0 °F 83% 29.91 in 10.0 mi North 11.5 mph - N/A   Partly Cloudy